COSMOS 2251 DEB, 35038

Orbit data source: Space-Track

COSMOS 2251 DEB, 35038 is space debris in LEO originally from a launch on Wed, 16 Jun 1993 UTC launched from the Plesetsk Missile And Space Complex (PKMTR). The debris from Iridium 33, an American commercial communications satellite, has been tracked extensively since its accidental collision with the defunct Russian satellite Cosmos 2251 in 2009. This event, occurring at high speed in low Earth orbit (LEO), generated thousands of pieces of space debris, significantly increasing the risk of further collisions. The Iridium 33 debris cloud has impacted space traffic management and orbital debris mitigation strategies, making it a subject of ongoing study in space situational awareness.

Loading next visibility...
Identifier
35038, 1993-036AHB
Orbit
LEO
Country
Flag of CISCIS
Related business
Manufacturer
Unknown
Mission
Spacecraft
Bus & Motor
Unknown
Mass
Unknown
Launch date (UTC)
1993-06-16 (33 years ago)
Launch vehicle
Unknown
Launch site
Plesetsk Missile And Space Complex (PKMTR)
Object type
Payload
Rocket body
Debris
Shape & HBR
Unknown shape, 0.1 m
Radar Cross Section
Small (<0.1 m²)

Expand to show TLE details & history
Last TLE update: 4 days ago

TLE from 4 days ago
0 COSMOS 2251 DEB
1 35038U 93036AHB 26035.09090485  .00004004  00000-0  15851-2 0  9991
2 35038  74.1078 306.7060 0114465 277.4743 145.4992 14.25698750863294
Epoch: 2026-02-04T02:10Z
TLE epoch observation values (Epoch: 2026-02-04T02:10:54.179Z)
Latitude
59.67746°
Longitude
168.67986°
Altitude
884.009 km
Speed
7.381 km/s
True Right ascension
22h 22m 40s
True Declination
59° 31' 48"
Sunlit
Object was in daylight at epoch
Visualization orbit readout
Latitude
Unknown
Longitude
Unknown
Altitude
Unknown
Speed
Unknown
Apparent Right ascension
Unknown
Apparent Declination
Unknown
Sunlit
N/A
Visualization observer readout
Local Sidereal Time
18:33:54
Azimuth
Unknown
Elevation
Unknown
Doppler factor
Unknown
Orbital elements
Apogee altitude
885.981 km
Perigee altitude
721.565 km
Semi-major axis
7,181.91 km
Eccentricity
0.01145
Inclination
74.1078°
RAAN
306.706°
Arg. of periapsis
277.4743°
True anomaly
146.23347°
Mean anomaly
145.4992°
Eccentric anomaly
145.8672°
Mean motion
3.56602 °/min
Orbital period
100.95 mins
BSTAR
0.0015851
Loading maneuver chart data...
Computing Atmospheric mass density...
Loading historical data...
Loading historical data...
Loading historical data...
Loading historical data...
Loading historical data...
Loading historical data...
Loading historical data...

Documentation

Showing up to 5 results
|